Airfield :
LOGIN :

Register | Disclaimer

   EN    FR    IT 

 










Legend :    VFR   Marginal VFR   IFR   Intensive IFR   Very Intensive IFR
Visi :
Ceiling :
>= 8 km
>= 3000ft
5 to 8 km
1000 to 3000 ft
1500m to 5 km
500 to 1000 ft
800 to 1500m
200 to 500 ft
< 800m
< 200 ft
Symbols :   Thunderstorms  Fog  Heavy snow  Heavy precipitations  Wind > 20 kt
SIGMETs :     Misc.  Thunderstorms  Icing  Turbulence  Mountain Waves  Volcanic Ashes






- Airport Elevation : 0 ft


ETEB - Ansbach Army Heliport

CURRENT METAR :
  • 172056Z AUTO 27010KT 9999 -RA OVC005 02/01 A3050 RMK AO2 RAE14DZB14E54RAB54 SLP368 P0000 60001 T00150014 52011 FZRANO $

EXPIRED METARs :
  • 171956Z AUTO 26014G19KT 9999 -RA OVC006 01/01 A3049 RMK AO2 RAE1856DZB1856E1859RAB1859E15RAB15E15DZB18E26DZB26E26RAB50E51UPB51E54RAB54 SLP364 P0000 T00140013 FZRANO $
  • 171926Z AUTO 27010KT 9999 OVC006 01/01 A3048 RMK AO2 RAE1856DZB1856E1859RAB1859E15RAB15E15DZB18E26DZB26 SLP361 FZRANO $
  • 171915Z AUTO 27013KT 9999 OVC006 01/01 A3048 RMK AO2 RAE1856DZB1856E1859RAB1859E15RAB15 SLP361 FZRANO $
  • 171856Z AUTO 25010KT 9999 -RA OVC006 01/01 A3047 RMK AO2 RAE1758DZB1758E01RAB01E12UPB12E25DZB25E28RAB28E38UPB38E46RAB46 SLP360 P0001 T00110010 FZRANO $

Expired Forecast.



MET'MAP, your aeronautical weather chart ! - Copyright ORBIFLY December 2007 - Disclaimer

ORBIFLY MET'MAP TEAM :

Programming & Development : Alexandra Zaïnal
Concept & original design : Baudouin d'Aumeries
Assistance for programming : Marc-Olivier Méhu
Technical & hardware support : Manuel Goepfert

Contact : metmap@orbifly.com




SOURCES & CREDITS :

   NOAA